Regional Weather Roundup
Issued by NWS Cleveland, OH

Home | Current Version | Previous Version | Text Only | Print | Product List | Glossary On
Versions: 1 2 3 4 5 6 7 8 9 10 11 12 13 14 15 16 17 18 19 20 21 22 23 24 25 26 27 28 29 30 31 32 33 34 35 36 37 38 39 40 41 42 43 44 45 46 47 48 49 50
000
ASUS41 KCLE 121412
RWRCLE
OHIO REGIONAL WEATHER ROUNDUP
NATIONAL WEATHER SERVICE WILMINGTON, OH
900 AM EST FRI FEB 12 2016

NOTE: "FAIR" INDICATES FEW OR NO CLOUDS BELOW 12,000 FEET WITH NO
SIGNIFICANT WEATHER AND/OR OBSTRUCTIONS TO VISIBILITY.

OHZ001>008-015>018-024>027-034-035-043-044-121500-
   NORTHWEST OHIO

CITY           SKY/WX    TMP DP  RH WIND       PRES   REMARKS
DEFIANCE       CLOUDY    20   9  62 SW12      30.12F WCI   8
FINDLAY        CLOUDY    19  11  70 SW10      30.12F WCI   7
TOLEDO EXPRESS CLOUDY    17   8  67 SW10      30.10F WCI   5
TOLEDO EXEC      N/A    N/A N/A N/A MISG      30.12F
LIMA           CLOUDY    18  10  71 SW10      30.12F WCI   6
$$

OHZ009>014-019>023-028>033-038-089-121500-
   NORTHEAST OHIO

CITY           SKY/WX    TMP DP  RH WIND       PRES   REMARKS
CLE-HOPKINS    CLOUDY    15   7  70 S12       30.14F WCI   2
CLE-LAKEFRONT  PTSUNNY   18   8  65 S14       30.11F WCI   4
CUY CO. ARPT   CLOUDY    18   9  68 SW12      30.10F WCI   5
LORAIN-ELYRIA  CLOUDY    15   7  70 SW9       30.12F WCI   3
ASHTABULA      PTSUNNY   14   7  73 SW12      30.09F WCI   0
AKRON-CANTON   CLOUDY    13   7  77 SW7       30.11F WCI   3
WOOSTER        CLOUDY    13   7  77 SW9       30.12F WCI   1
MANSFIELD      CLOUDY    14   7  73 S10       30.09F WCI   1
YOUNGSTOWN     CLOUDY    13   6  74 S7        30.11F WCI   3
$$

OHZ042-051>053-060>062-070>072-077>081-121500-
  SOUTHWEST OHIO

CITY           SKY/WX    TMP DP  RH WIND       PRES   REMARKS
CINC-COVINGTON CLOUDY    21  10  62 SW5       30.17S WCI  15
CINC-LUNKEN    CLOUDY    21  12  68 SW6       30.22R WCI  13
HAMILTON       CLOUDY    20  12  71 CALM      30.20R
DAYTON         CLOUDY    18   9  68 SW6       30.15S WCI  10
WRIGHT-PAT AFB CLOUDY    16   8  68 S3        30.16S
DAYTON GENERAL CLOUDY    16   6  65 S7        30.14F WCI   6
WILMINGTON     CLOUDY    17   7  64 S6        30.14F WCI   9
$$

OHZ036-037-039>041-045>050-054>059-063>069-073>076-082>088-121500-
  CENTRAL AND SOUTHEAST OHIO

CITY           SKY/WX    TMP DP  RH WIND       PRES   REMARKS
COLUMBUS       CLOUDY    13   5  70 S7        30.17F WCI   3
OSU AIRPORT    CLOUDY    16   8  71 SW7       30.15F WCI   6
BOLTON FIELD     N/A     12   9  85 S5        30.16F WCI   4
RICKENBACK AFB CLOUDY    11   6  80 SW5       30.17F WCI   3
NEWARK         CLOUDY    13   7  77 SW3       30.16F
MARION         CLOUDY    17   7  64 SW10      30.14F WCI   5
LANCASTER      CLOUDY    14   8  77 SE3       30.16F
ZANESVILLE     CLOUDY    11   5  77 CALM      30.16F
NEW PHILLY     CLOUDY    11   7  84 SE5       30.17F WCI   3
$$



USA.gov is the U.S. government's official web portal to all federal, state and local government web resources and services.